Location: Newark
(50.0306°N, 2.3272°E)
Time: 04:32:02
(UTC+00:00)

Vanguard 1 Rocket - Pass Details

Date: 12 December 2019
Orbit: 650 x 4226 km, 34.3° (Epoch: 22 January)

Event Time Altitude Azimuth Distance (km) Brightness Sun altitude
Rises 21:16:31 0° 241° (WSW) 7,730 12.4 -50.6°
Reaches altitude 10° 21:22:59 10° 235° (SW) 6,192 11.7 -51.5°
Enters shadow 21:31:17 26° 217° (SW) 4,184 10.6 -52.6°
Maximum altitude 21:37:40 35° 179° (S) 3,034 - -53.5°
Drops below altitude 10° 21:46:03 10° 117° (ESE) 3,548 - -54.5°
Sets 21:48:39 0° 108° (ESE) 4,187 - -54.9°
